ASNARO

Last updated on Thu Oct 30 2025 00:02:31 GMT+0000 (Coordinated Universal Time)

1 40298U 14070A 25302.48739865 .00015418 00000+0 72737-3 0 9994 2 40298 97.3686 19.5042 0004755 207.4456 152.6528 15.19543417608973
UTC large
Height (km)
Speed (km/s)
/
Latitude / Longitude
Inclination (degrees)
Orbital Period (minutes)
Azimuth
Elevation
Range (km)
Doppler Factor

Next 0 passes for location: London (51.5072 / 0.1276)

Sorry there are no passes over London.